Location: Poughquag
(41.6090°N, 73.6820°W)
Time: 23:12:25
(UTC-04:00)

Envisat - Visible Passes

Search period start: 19 September 2018 00:00
Search period end: 29 September 2018 00:00
Orbit: 764 x 766 km, 98.2° (Epoch: 19 September)

Date Brightness Start Highest point End Pass type
(mag) Time Alt. Az. Time Alt. Az. Time Alt. Az.
19 Sep 3.2 20:05:40 10° S 20:10:43 73° WSW 20:15:49 10° NNW visible
20 Sep 3.2 19:29:09 10° SSE 19:34:03 51° ENE 19:38:58 10° N visible
20 Sep 5.5 21:09:50 10° SW 21:13:21 19° W 21:16:53 10° NW visible
21 Sep 4.3 20:31:35 10° SSW 20:36:21 41° W 20:41:09 10° NNW visible
22 Sep 3.0 19:54:27 10° SSE 19:59:32 89° E 20:04:39 10° NNW visible
22 Sep 6.1 21:39:03 10° W 21:39:14 10° W 21:39:24 10° W visible
23 Sep 3.4 19:18:12 10° SE 19:22:55 41° ENE 19:27:40 10° N visible
23 Sep 5.2 20:58:03 10° SSW 21:02:04 24° W 21:06:08 10° NW visible
24 Sep 3.8 20:20:12 10° S 20:25:08 52° W 20:30:06 10° NNW visible
25 Sep 2.9 19:43:20 10° SSE 19:48:23 71° ENE 19:53:27 10° N visible
25 Sep 5.8 21:25:31 10° WSW 21:27:55 13° W 21:30:18 10° WNW visible
26 Sep 3.7 19:07:20 10° SE 19:11:49 33° ENE 19:16:20 10° N visible
26 Sep 4.8 20:46:25 10° SSW 20:50:49 30° W 20:55:15 10° NW visible
27 Sep 3.4 20:08:54 10° S 20:13:56 66° WSW 20:19:00 10° NNW visible
28 Sep 3.1 19:32:17 10° SSE 19:37:14 56° ENE 19:42:13 10° N visible
28 Sep 5.6 21:13:21 10° SW 21:16:36 17° W 21:19:52 10° NW visible
